When you browse on this site, cookies collect data to enhance your experience and personalize the content and advertising you see.
Visit our Privacy Policy to learn more. By continuing to use the site, you agree to this use of cookies and data.
  • în România
  • Lista ţărilor
  • Pe 7 zile
  • Temperatura apei
  • Hartă satelitară
  • Meteo pe hartă
  • Widget-uri
  • user-avatar
    Intrare

    Meteo pe oră la Staronakaryakovo

    Astăzi, 22 Iulie, Luni

    Timp Temperatura Precipitaţii Vânt Presiune Umiditate
    00:00 +16°C° 0 mm 2 m/s 744 mmHg 94%
    01:00 +15°C° 0 mm 2 m/s 743 mmHg 94%
    02:00 +15°C° 0 mm 2 m/s 743 mmHg 95%
    03:00 +15°C° 0 mm 1 m/s 743 mmHg 95%
    04:00 +14°C° 0 mm 2 m/s 743 mmHg 97%
    05:00 +15°C° 0 mm 2 m/s 743 mmHg 95%
    06:00 +16°C° 0 mm 2 m/s 744 mmHg 94%
    07:00 +17°C° 0 mm 3 m/s 744 mmHg 93%
    08:00 +18°C° 0.1 mm 3 m/s 743 mmHg 89%
    09:00 +19°C° 0.1 mm 3 m/s 743 mmHg 85%
    10:00 +20°C° 0 mm 3 m/s 743 mmHg 81%
    11:00 +21°C° 0.5 mm 3 m/s 743 mmHg 79%
    12:00 +21°C° 0.5 mm 4 m/s 743 mmHg 78%
    13:00 +21°C° 0.5 mm 4 m/s 743 mmHg 76%
    14:00 +22°C° 0.4 mm 4 m/s 742 mmHg 76%
    15:00 +22°C° 0.4 mm 3 m/s 742 mmHg 76%
    16:00 +22°C° 0.4 mm 3 m/s 742 mmHg 76%
    17:00 +21°C° 0.1 mm 3 m/s 742 mmHg 79%
    18:00 +21°C° 0.1 mm 3 m/s 742 mmHg 82%
    19:00 +20°C° 0.1 mm 2 m/s 742 mmHg 85%
    20:00 +19°C° 0.1 mm 2 m/s 742 mmHg 88%
    21:00 +17°C° 0.1 mm 2 m/s 742 mmHg 91%
    22:00 +16°C° 0.1 mm 2 m/s 742 mmHg 94%
    23:00 +15°C° 0 mm 2 m/s 741 mmHg 94%

    Mâine, 23 Iulie, Marţi

    Timp Temperatura Precipitaţii Vânt Presiune Umiditate
    00:00 +15°C° 0 mm 2 m/s 741 mmHg 95%
    01:00 +15°C° 0 mm 2 m/s 741 mmHg 96%
    02:00 +14°C° 0 mm 2 m/s 741 mmHg 96%
    03:00 +14°C° 0 mm 2 m/s 741 mmHg 97%
    04:00 +13°C° 0 mm 2 m/s 741 mmHg 97%
    05:00 +14°C° 0 mm 2 m/s 741 mmHg 96%
    06:00 +15°C° 0 mm 2 m/s 741 mmHg 95%
    07:00 +16°C° 0 mm 2 m/s 741 mmHg 95%
    08:00 +17°C° 0 mm 2 m/s 741 mmHg 92%
    09:00 +18°C° 0 mm 3 m/s 742 mmHg 89%
    10:00 +19°C° 0 mm 3 m/s 742 mmHg 86%
    11:00 +19°C° 0.4 mm 3 m/s 742 mmHg 83%
    12:00 +20°C° 0.4 mm 3 m/s 742 mmHg 81%
    13:00 +21°C° 0.4 mm 4 m/s 742 mmHg 78%
    14:00 +21°C° 0.6 mm 3 m/s 742 mmHg 78%
    15:00 +22°C° 0.6 mm 3 m/s 742 mmHg 77%
    16:00 +22°C° 0.6 mm 3 m/s 742 mmHg 77%
    17:00 +21°C° 0.3 mm 3 m/s 742 mmHg 81%
    18:00 +20°C° 0.3 mm 3 m/s 742 mmHg 85%
    19:00 +20°C° 0.3 mm 3 m/s 743 mmHg 89%
    20:00 +19°C° 0.3 mm 2 m/s 743 mmHg 91%
    21:00 +17°C° 0.3 mm 2 m/s 743 mmHg 93%
    22:00 +16°C° 0.3 mm 2 m/s 743 mmHg 95%
    23:00 +16°C° 0 mm 2 m/s 743 mmHg 96%

    Poimâine, 24 Iulie, Miercuri

    Timp Temperatura Precipitaţii Vânt Presiune Umiditate
    00:00 +15°C° 0 mm 2 m/s 743 mmHg 96%
    01:00 +15°C° 0 mm 1 m/s 743 mmHg 96%
    02:00 +15°C° 0 mm 1 m/s 744 mmHg 96%
    03:00 +14°C° 0 mm 1 m/s 744 mmHg 96%
    04:00 +14°C° 0 mm 1 m/s 744 mmHg 96%
    05:00 +15°C° 0 mm 1 m/s 744 mmHg 95%
    06:00 +16°C° 0 mm 2 m/s 744 mmHg 94%
    07:00 +17°C° 0 mm 2 m/s 745 mmHg 93%
    08:00 +18°C° 0.1 mm 2 m/s 745 mmHg 90%
    09:00 +19°C° 0.1 mm 2 m/s 745 mmHg 87%
    10:00 +20°C° 0.1 mm 3 m/s 745 mmHg 84%
    11:00 +21°C° 0.4 mm 3 m/s 745 mmHg 82%
    12:00 +22°C° 0.4 mm 3 m/s 745 mmHg 80%
    13:00 +23°C° 0.4 mm 4 m/s 746 mmHg 78%
    14:00 +24°C° 0.5 mm 3 m/s 746 mmHg 78%
    15:00 +24°C° 0.5 mm 3 m/s 746 mmHg 79%
    16:00 +24°C° 0.5 mm 3 m/s 746 mmHg 79%
    17:00 +23°C° 0.1 mm 2 m/s 746 mmHg 80%
    18:00 +23°C° 0.1 mm 2 m/s 746 mmHg 82%
    19:00 +23°C° 0.1 mm 2 m/s 746 mmHg 83%
    20:00 +20°C° 0 mm 2 m/s 746 mmHg 85%
    21:00 +19°C° 0 mm 2 m/s 746 mmHg 87%
    22:00 +18°C° 0 mm 2 m/s 746 mmHg 88%
    23:00 +17°C° 0 mm 2 m/s 747 mmHg 88%

    25 Iulie, Joi

    Timp Temperatura Precipitaţii Vânt Presiune Umiditate
    00:00 +18°C° 0 mm 1 m/s 747 mmHg 88%
    01:00 +18°C° 0 mm 1 m/s 747 mmHg 88%
    02:00 +16°C° 0 mm 1 m/s 747 mmHg 88%
    03:00 +16°C° 0 mm 1 m/s 747 mmHg 88%
    04:00 +16°C° 0 mm 1 m/s 747 mmHg 87%
    05:00 +18°C° 0 mm 1 m/s 747 mmHg 85%
    06:00 +20°C° 0 mm 1 m/s 748 mmHg 83%
    07:00 +21°C° 0 mm 1 m/s 748 mmHg 80%
    08:00 +23°C° 0 mm 1 m/s 748 mmHg 74%
    09:00 +24°C° 0 mm 1 m/s 748 mmHg 68%
    10:00 +26°C° 0 mm 1 m/s 748 mmHg 62%
    11:00 +26°C° 0 mm 1 m/s 748 mmHg 59%
    12:00 +27°C° 0 mm 1 m/s 748 mmHg 57%
    13:00 +28°C° 0 mm 2 m/s 748 mmHg 54%
    14:00 +27°C° 0 mm 2 m/s 748 mmHg 56%
    15:00 +27°C° 0 mm 2 m/s 748 mmHg 58%
    16:00 +27°C° 0 mm 2 m/s 748 mmHg 59%
    17:00 +26°C° 0 mm 2 m/s 748 mmHg 64%
    18:00 +25°C° 0 mm 2 m/s 747 mmHg 69%
    19:00 +24°C° 0 mm 2 m/s 747 mmHg 73%
    20:00 +23°C° 0 mm 2 m/s 747 mmHg 75%
    21:00 +20°C° 0 mm 2 m/s 747 mmHg 76%
    22:00 +19°C° 0 mm 2 m/s 748 mmHg 78%
    23:00 +18°C° 0 mm 2 m/s 748 mmHg 80%

    26 Iulie, Vineri

    Timp Temperatura Precipitaţii Vânt Presiune Umiditate
    00:00 +18°C° 0 mm 2 m/s 748 mmHg 82%
    01:00 +18°C° 0 mm 1 m/s 748 mmHg 84%
    02:00 +18°C° 0 mm 1 m/s 748 mmHg 81%
    03:00 +18°C° 0 mm 1 m/s 747 mmHg 78%
    04:00 +16°C° 0 mm 1 m/s 747 mmHg 75%
    05:00 +19°C° 0 mm 1 m/s 747 mmHg 74%
    06:00 +20°C° 0 mm 1 m/s 747 mmHg 72%
    07:00 +21°C° 0 mm 1 m/s 747 mmHg 70%
    08:00 +22°C° 0 mm 1 m/s 747 mmHg 66%
    09:00 +24°C° 0 mm 1 m/s 747 mmHg 61%
    10:00 +26°C° 0 mm 1 m/s 747 mmHg 56%
    11:00 +26°C° 0 mm 1 m/s 747 mmHg 54%
    12:00 +27°C° 0 mm 1 m/s 747 mmHg 52%
    13:00 +28°C° 0 mm 1 m/s 747 mmHg 50%
    14:00 +28°C° 0 mm 1 m/s 747 mmHg 52%
    15:00 +28°C° 0 mm 2 m/s 746 mmHg 53%
    16:00 +28°C° 0 mm 2 m/s 746 mmHg 54%
    17:00 +26°C° 0 mm 2 m/s 746 mmHg 62%
    18:00 +25°C° 0 mm 2 m/s 746 mmHg 69%
    19:00 +24°C° 0 mm 2 m/s 745 mmHg 76%
    20:00 +23°C° 0 mm 2 m/s 745 mmHg 78%
    21:00 +21°C° 0 mm 1 m/s 745 mmHg 80%
    22:00 +19°C° 0 mm 1 m/s 745 mmHg 83%
    23:00 +19°C° 0 mm 1 m/s 745 mmHg 83%

    27 Iulie, Sâmbătă

    Timp Temperatura Precipitaţii Vânt Presiune Umiditate
    00:00 +19°C° 0 mm 1 m/s 745 mmHg 84%
    01:00 +18°C° 0 mm 1 m/s 745 mmHg 85%
    02:00 +16°C° 0 mm 0 m/s 744 mmHg 86%
    03:00 +16°C° 0 mm 0 m/s 744 mmHg 87%
    04:00 +15°C° 0 mm 0 m/s 744 mmHg 87%
    05:00 +17°C° 0 mm 0 m/s 744 mmHg 84%
    06:00 +18°C° 0 mm 0 m/s 744 mmHg 82%
    07:00 +19°C° 0 mm 0 m/s 744 mmHg 79%
    08:00 +21°C° 0 mm 0 m/s 744 mmHg 74%
    09:00 +24°C° 0 mm 1 m/s 743 mmHg 70%
    10:00 +26°C° 0 mm 1 m/s 743 mmHg 65%
    11:00 +26°C° 0.1 mm 2 m/s 743 mmHg 62%
    12:00 +27°C° 0.1 mm 2 m/s 742 mmHg 60%
    13:00 +27°C° 0.1 mm 3 m/s 742 mmHg 57%
    14:00 +27°C° 0.2 mm 3 m/s 741 mmHg 59%
    15:00 +27°C° 0.2 mm 3 m/s 741 mmHg 61%
    16:00 +27°C° 0.2 mm 3 m/s 741 mmHg 63%
    17:00 +26°C° 0.3 mm 3 m/s 740 mmHg 68%
    18:00 +25°C° 0.3 mm 2 m/s 740 mmHg 74%
    19:00 +24°C° 0.3 mm 2 m/s 739 mmHg 80%
    20:00 +21°C° 0 mm 2 m/s 739 mmHg 82%
    21:00 +20°C° 0 mm 2 m/s 739 mmHg 84%
    22:00 +19°C° 0 mm 2 m/s 738 mmHg 86%
    23:00 +18°C° 0 mm 2 m/s 738 mmHg 87%
    Arată mai mult